Home   Weather   Xi'an   Past weeks

Flag for China Past Weather in Xi'an, Shaanxi, China — Yesterday and Last 2 Weeks

Now
73 °F

Sunny.


Feels Like: 77 °F
Forecast: 47 / 85 °F
Wind: 8 mph from South

Location: Xian/Xianyang

Current Time: Apr 28, 2017 at 12:57:34 pm

Latest Report: Apr 28, 2017 at 12:00 pm


Visibility: 10 mi

Pressure: 30.04 "Hg

Humidity: 33%

Dew Point: 43 °F

Location of Xi'anLocation

Past Weather in Xi'an — Graph

°F

Xi'an Temperature Yesterday

Maximum temperature yesterday: 77 °F (at 3:00 pm)
Minimum temperature yesterday: 43 °F (at 5:00 am)
Average temperature yesterday: 59 °F

High & Low Weather Summary for the Past Weeks

 TemperatureHumidityPressure
High84 °F (Apr 17, 4:00 pm)100% (Apr 15, 6:00 am)30.27 "Hg (Apr 15, 6:00 am)
Low36 °F (Apr 22, 6:00 am)14% (Apr 20, 10:00 pm)29.62 "Hg (Apr 17, 5:00 pm)
Average62 °F62%29.95 "Hg
* Reported Apr 13 11:00 am — Apr 28 11:00 am, Xi'an, Weather by CustomWeather, © 2017

Note: Actual official high and low records may vary slightly from our data, if they occured in-between our weather recording intervals... More about our weather records

Advertising

Xi'an Weather History for the Previous 24 Hours

Scroll right to see more
 ConditionsComfort  
Time TempWeatherWind HumidityBarometerVisibility
11:00 am
Fri, Apr 28
70 °FSunny.6 mph38%30.07 "Hg10 mi
10:00 am66 °FSunny.3 mph43%30.09 "Hg10 mi
9:00 am63 °FPassing clouds.3 mph45%30.09 "HgN/A
8:00 am57 °FSunny.1 mph59%30.09 "Hg10 mi
7:00 am45 °FSunny.1 mph93%30.07 "Hg10 mi
6:00 am43 °FClear.1 mph93%30.07 "Hg10 mi
5:00 am43 °FClear.1 mph93%30.07 "Hg10 mi
4:00 am43 °FClear.No wind93%30.04 "Hg10 mi
3:00 am43 °FClear.No wind100%30.04 "Hg10 mi
2:00 am45 °FClear.No wind93%30.07 "Hg10 mi
1:00 am46 °FClear.1 mph87%30.07 "Hg10 mi
12:00 am46 °FClear.1 mph93%30.07 "Hg10 mi
11:00 pm
Thu, Apr 27
50 °FClear.No wind82%30.07 "Hg10 mi
10:00 pm52 °FClear.1 mph77%30.07 "Hg10 mi
9:00 pm55 °FClear.No wind63%30.07 "Hg10 mi
8:00 pm63 °FSunny.No wind42%30.04 "Hg10 mi
7:00 pm72 °FSunny.3 mph23%30.04 "Hg10 mi
6:00 pm73 °FSunny.6 mph19%30.04 "Hg10 mi
5:00 pm75 °FSunny.3 mph18%30.07 "Hg10 mi
4:00 pm75 °FPassing clouds.3 mph15%30.07 "HgN/A
3:00 pm77 °FPassing clouds.6 mph14%30.12 "HgN/A
2:00 pm73 °FClear.6 mph33%30.15 "Hg5 mi
1:00 pm72 °FHaze.3 mph44%30.18 "Hg3 mi
12:00 pm70 °FHaze.1 mph46%30.24 "Hg3 mi
Weather by CustomWeather, © 2017

See weather overviewHow to use our weather pages